Location: Ellerstadt
(49.4644°N, 8.2615°E)
Time: 13:40:03
(UTC+00:00)

S-56A Canister/Altair - All Passes

Search period start: 22 June 2021 00:00
Search period end: 02 July 2021 00:00
Orbit: 632 x 2500 km, 38.9° (Epoch: 21 June)

Date Brightness Start Highest point End Pass type
(mag) Time Alt. Az. Time Alt. Az. Time Alt. Az.
22 Jun - 03:28:05 10° SSW 03:30:47 16° SSE 03:33:31 10° ESE daylight
22 Jun - 05:29:46 10° SW 05:33:27 24° S 05:37:43 10° SE daylight
22 Jun - 07:32:49 10° WSW 07:36:24 19° SSW 07:40:44 10° SSE daylight
23 Jun - 02:55:56 10° SSW 02:58:20 14° SSE 03:00:44 10° SE daylight
23 Jun - 04:57:26 10° SW 05:00:59 23° S 05:04:57 10° SE daylight
23 Jun - 07:00:27 10° WSW 07:03:51 19° SSW 07:07:56 10° SSE daylight
24 Jun - 02:23:46 10° S 02:25:54 13° SSE 02:27:57 10° SE visible
24 Jun - 04:25:05 10° SW 04:28:33 22° S 04:32:15 10° SE daylight
24 Jun - 06:28:03 10° WSW 06:31:22 19° SSW 06:35:12 10° SSE daylight
25 Jun - 01:51:36 10° S 01:53:26 12° SSE 01:55:11 10° SE visible
25 Jun - 03:52:41 10° SW 03:56:07 22° S 03:59:38 10° SE daylight
25 Jun - 05:55:39 10° WSW 05:58:54 19° SSW 06:02:32 10° SSE daylight
26 Jun - 01:19:26 10° S 01:20:57 11° SSE 01:22:24 10° SE visible
26 Jun - 03:20:13 10° SW 03:23:42 21° S 03:27:04 10° ESE daylight
26 Jun - 05:23:13 10° WSW 05:26:26 19° S 05:29:56 10° SE daylight
27 Jun - 00:47:20 10° S 00:48:27 11° SSE 00:49:33 10° SE visible
27 Jun - 02:47:42 10° SW 02:51:15 21° S 02:54:35 10° ESE daylight
27 Jun - 04:50:44 10° WSW 04:53:59 20° S 04:57:24 10° SE daylight
28 Jun - 00:15:24 10° SSE 00:15:56 10° SSE 00:16:28 10° SSE visible
28 Jun - 02:15:06 10° SW 02:18:48 20° S 02:22:08 10° ESE visible
28 Jun - 04:18:11 10° WSW 04:21:33 21° S 04:24:56 10° SE daylight
29 Jun - 01:42:26 10° SW 01:46:21 20° S 01:49:44 10° ESE visible
29 Jun - 03:45:35 10° WSW 03:49:07 21° S 03:52:32 10° SE daylight
29 Jun - 05:50:36 10° SW 05:51:46 11° SSW 05:52:57 10° S daylight
30 Jun - 01:09:42 10° SW 01:13:51 20° S 01:17:21 10° ESE visible
30 Jun - 03:12:55 10° WSW 03:16:41 22° S 03:20:09 10° SE daylight
30 Jun - 05:17:36 10° SW 05:19:18 12° SSW 05:21:02 10° S daylight
01 Jul - 00:36:55 10° SSW 00:41:21 20° SSE 00:45:00 10° ESE visible
01 Jul - 02:40:11 10° WSW 02:44:15 24° S 02:47:51 10° SE visible
01 Jul - 04:44:42 10° SW 04:46:52 13° SSW 04:49:02 10° S daylight
